Total_Precipitation_Accumulation
0.10 0.16 0.46 0.57 0.53 0.49 0.52 0.54 0.54 0.48 0.47 0.51 0.53 0.56 0.57 0.55 0.55 0.53 0.49 0.52 0.56 0.56 0.61 0.68 0.70 0.69 0.61 0.51 0.44 0.40 0.35 0.35 0.35 0.38 0.41 0.45 0.46 0.45 0.42 0.38 0.35 0.41 0.55
0.10 0.16 0.38 0.47 0.50 0.51 0.56 0.55 0.54 0.44 0.43 0.47 0.52 0.56 0.55 0.54 0.54 0.54 0.55 0.57 0.61 0.62 0.64 0.64 0.61 0.59 0.57 0.48 0.43 0.38 0.35 0.31 0.26 0.24 0.26 0.29 0.40 0.50 0.47 0.43 0.42 0.52 0.55
0.09 0.14 0.29 0.42 0.47 0.50 0.55 0.53 0.52 0.43 0.38 0.42 0.50 0.57 0.57 0.54 0.53 0.56 0.57 0.60 0.64 0.67 0.67 0.62 0.59 0.58 0.50 0.45 0.43 0.37 0.36 0.30 0.22 0.17 0.16 0.22 0.38 0.54 0.51 0.49 0.49 0.54 0.56
0.06 0.11 0.20 0.35 0.46 0.52 0.54 0.53 0.49 0.43 0.42 0.44 0.49 0.57 0.60 0.56 0.52 0.55 0.57 0.59 0.64 0.65 0.67 0.64 0.60 0.59 0.50 0.43 0.41 0.38 0.37 0.31 0.21 0.14 0.09 0.18 0.40 0.66 0.66 0.63 0.59 0.58 0.58
0.08 0.11 0.20 0.36 0.47 0.56 0.58 0.58 0.54 0.50 0.49 0.51 0.53 0.58 0.62 0.64 0.59 0.55 0.51 0.53 0.62 0.62 0.63 0.65 0.61 0.60 0.53 0.46 0.41 0.41 0.42 0.37 0.23 0.12 0.08 0.14 0.38 0.74 0.77 0.70 0.63 0.59 0.56
0.09 0.12 0.21 0.38 0.51 0.57 0.60 0.63 0.57 0.56 0.57 0.56 0.57 0.62 0.66 0.67 0.63 0.60 0.54 0.51 0.50 0.54 0.59 0.63 0.63 0.64 0.60 0.50 0.48 0.50 0.52 0.46 0.23 0.09 0.09 0.14 0.37 0.74 0.81 0.71 0.63 0.59 0.57
0.09 0.13 0.22 0.39 0.54 0.60 0.63 0.67 0.64 0.64 0.65 0.63 0.63 0.65 0.68 0.69 0.69 0.64 0.59 0.51 0.45 0.44 0.48 0.55 0.57 0.59 0.60 0.54 0.53 0.56 0.61 0.47 0.21 0.15 0.14 0.16 0.36 0.81 0.99 0.84 0.70 0.62 0.62
0.10 0.16 0.26 0.45 0.57 0.67 0.72 0.76 0.72 0.71 0.76 0.76 0.76 0.74 0.73 0.70 0.68 0.65 0.61 0.55 0.49 0.47 0.49 0.51 0.53 0.57 0.59 0.58 0.56 0.59 0.60 0.39 0.19 0.18 0.19 0.22 0.45 0.94 1.12 1.09 0.89 0.69 0.63
0.14 0.18 0.28 0.42 0.57 0.72 0.81 0.83 0.81 0.78 0.80 0.80 0.80 0.79 0.77 0.76 0.77 0.77 0.71 0.61 0.56 0.55 0.54 0.51 0.48 0.47 0.50 0.54 0.55 0.52 0.47 0.34 0.19 0.24 0.24 0.33 0.46 0.93 1.11 1.18 1.06 0.86 0.71
0.21 0.24 0.32 0.45 0.55 0.64 0.75 0.83 0.82 0.79 0.83 0.84 0.85 0.84 0.82 0.82 0.84 0.85 0.76 0.65 0.60 0.59 0.54 0.49 0.47 0.43 0.39 0.39 0.40 0.38 0.31 0.26 0.19 0.26 0.38 0.38 0.47 0.96 1.17 1.20 1.11 1.00 0.88
0.30 0.31 0.38 0.53 0.61 0.66 0.70 0.71 0.83 0.87 0.90 0.89 0.89 0.85 0.84 0.81 0.76 0.73 0.68 0.66 0.65 0.63 0.57 0.53 0.51 0.45 0.39 0.32 0.29 0.27 0.22 0.17 0.19 0.31 0.36 0.38 0.58 1.03 1.20 1.20 1.13 1.05 1.02
0.30 0.33 0.41 0.54 0.61 0.69 0.70 0.78 0.90 0.90 0.89 0.88 0.84 0.85 0.83 0.77 0.73 0.68 0.68 0.68 0.65 0.67 0.67 0.64 0.58 0.49 0.39 0.30 0.31 0.31 0.19 0.14 0.15 0.17 0.20 0.28 0.60 1.06 1.22 1.18 1.18 1.17 1.15
0.30 0.37 0.43 0.55 0.65 0.73 0.76 0.79 0.86 0.86 0.88 0.90 0.91 0.90 0.90 0.88 0.86 0.83 0.79 0.80 0.72 0.64 0.65 0.66 0.64 0.52 0.44 0.38 0.37 0.33 0.24 0.20 0.16 0.13 0.13 0.20 0.38 0.67 1.00 1.15 1.21 1.25 1.28
0.39 0.45 0.49 0.60 0.70 0.75 0.81 0.84 0.82 0.81 0.81 0.82 0.89 0.92 0.93 0.91 0.87 0.86 0.82 0.77 0.74 0.72 0.69 0.65 0.60 0.51 0.44 0.37 0.36 0.31 0.27 0.25 0.20 0.18 0.14 0.17 0.24 0.36 0.60 0.87 1.06 1.20 1.32
0.43 0.49 0.56 0.67 0.73 0.76 0.83 0.89 0.89 0.83 0.77 0.75 0.80 0.86 0.89 0.88 0.83 0.78 0.75 0.72 0.69 0.69 0.68 0.62 0.55 0.47 0.39 0.36 0.34 0.30 0.29 0.27 0.26 0.24 0.20 0.20 0.20 0.24 0.37 0.60 0.86 1.09 1.29
0.42 0.49 0.59 0.70 0.79 0.83 0.86 0.86 0.86 0.87 0.83 0.79 0.78 0.77 0.79 0.82 0.82 0.80 0.76 0.74 0.69 0.66 0.67 0.65 0.60 0.53 0.44 0.37 0.32 0.29 0.28 0.26 0.27 0.27 0.25 0.26 0.24 0.24 0.31 0.45 0.65 0.96 1.22
0.47 0.57 0.69 0.76 0.88 0.94 0.94 0.94 0.89 0.87 0.89 0.85 0.81 0.80 0.77 0.76 0.78 0.82 0.82 0.77 0.70 0.64 0.63 0.65 0.67 0.67 0.59 0.49 0.41 0.34 0.29 0.26 0.24 0.24 0.26 0.28 0.29 0.29 0.30 0.38 0.48 0.71 1.04
0.61 0.67 0.77 0.85 0.92 0.96 1.01 1.04 0.97 0.90 0.91 0.90 0.86 0.86 0.82 0.79 0.80 0.84 0.86 0.82 0.76 0.71 0.66 0.63 0.62 0.64 0.63 0.59 0.54 0.49 0.42 0.36 0.28 0.23 0.23 0.25 0.31 0.33 0.33 0.34 0.40 0.53 0.82
0.62 0.67 0.79 0.91 0.90 0.90 1.04 1.09 1.05 0.97 0.96 0.94 0.92 0.88 0.85 0.81 0.78 0.83 0.87 0.86 0.83 0.81 0.76 0.72 0.65 0.59 0.57 0.56 0.53 0.50 0.45 0.43 0.41 0.37 0.30 0.25 0.26 0.32 0.36 0.37 0.40 0.42 0.58
0.66 0.73 0.80 0.95 0.96 0.96 1.06 1.16 1.11 1.06 1.03 1.00 0.94 0.86 0.85 0.84 0.80 0.79 0.82 0.84 0.87 0.85 0.81 0.76 0.71 0.63 0.57 0.54 0.55 0.53 0.46 0.40 0.38 0.37 0.35 0.31 0.27 0.27 0.36 0.42 0.43 0.40 0.42
0.63 0.69 0.76 0.92 0.95 1.02 1.05 1.05 1.05 0.97 0.96 0.96 0.92 0.88 0.84 0.86 0.88 0.85 0.82 0.81 0.83 0.83 0.76 0.71 0.71 0.71 0.67 0.64 0.67 0.64 0.56 0.47 0.43 0.40 0.38 0.35 0.30 0.27 0.30 0.40 0.47 0.44 0.39
0.53 0.56 0.61 0.82 0.95 0.99 0.98 0.93 0.92 0.93 0.92 0.94 0.91 0.92 0.91 0.88 0.92 0.90 0.84 0.84 0.82 0.80 0.76 0.70 0.67 0.69 0.68 0.69 0.72 0.75 0.67 0.60 0.50 0.39 0.38 0.35 0.30 0.29 0.31 0.34 0.42 0.48 0.46
0.50 0.50 0.55 0.71 0.87 0.95 0.96 1.06 1.10 1.13 1.15 1.10 1.02 0.95 0.92 0.93 0.92 0.95 0.89 0.84 0.85 0.85 0.80 0.72 0.66 0.66 0.66 0.61 0.60 0.79 0.84 0.63 0.44 0.36 0.35 0.34 0.33 0.32 0.31 0.33 0.37 0.44 0.50
0.46 0.48 0.56 0.73 0.86 0.91 0.96 1.04 1.08 1.08 1.11 1.06 0.97 0.91 0.87 0.87 0.91 0.89 0.91 0.90 0.85 0.83 0.79 0.74 0.67 0.64 0.66 0.66 0.61 0.60 0.65 0.64 0.64 0.47 0.32 0.31 0.33 0.35 0.34 0.33 0.35 0.41 0.47
0.50 0.52 0.58 0.70 0.84 0.94 0.99 0.99 1.05 1.04 0.99 1.02 1.07 1.02 0.97 0.93 0.91 0.91 0.88 0.90 0.89 0.83 0.77 0.76 0.76 0.73 0.71 0.70 0.65 0.59 0.55 0.51 0.53 0.63 0.44 0.31 0.33 0.33 0.35 0.38 0.39 0.42 0.46
0.56 0.59 0.62 0.68 0.77 0.95 1.06 1.03 0.99 1.01 1.02 1.03 1.07 1.09 1.08 1.02 0.95 0.88 0.87 0.85 0.86 0.82 0.75 0.73 0.75 0.78 0.78 0.73 0.67 0.62 0.63 0.62 0.54 0.59 0.55 0.38 0.36 0.34 0.35 0.40 0.45 0.47 0.49